STARLINK-2700 (48431 NORAD) Tracking and Keplerian Element Data

This shows tracking and keplerian element data for the satellite.

Feedback or suggestion? Click here.




ElementValue
Catalog48431
NameSTARLINK-2700
Epoch Orbit369
Epoch Day214.91667824
Epoch Year2021
RAAN157.3417
Inclination53.0472
Eccentricity0.0002029
Argument of Perigee19.9561
Mean Anonmoly83.9908
Mean Motion15.73219963
Decay Rate3.721E-05
L11 48431U 21040D 21214.91667824 .00003721 00000-0 30896-4 0 9993
L22 48431 53.0472 157.3417 0002029 19.9561 83.9908 15.73219963 3696

Live tracking and technical data element details for STARLINK-2700 (NORAD 48431). STARLINK-2700 can be tracked NOW for your location showing map with azimuth and elevation plus other details from your city location.

Track the satellite on the map from your city or location and see movement details for azimuth, elevation, latitude, longitude, range, height, and movement on the map or in text.







IsCatalogInMostPopularTable: catalog: 48431, numindb: 33
Update: records affected: 1



GetName: 48431 STARLINK-2700

Hit Count: updated at: Tue, 03 Aug 2021 22:35:33 GMT